| time (UTC) | temp F | wind direction | speed MPH | gust MPH | rain 1hr in | rain 24hr in | rain mn in | humidity % | barometer mb |
| 20260904223556 | 75 | 291 | 1.0 | 10.0 | 0.00 | 1.27 | 0.32 | 81 | 1013.5 |
| 20260904223056 | 75 | 279 | 2.0 | 7.0 | 0.00 | 1.27 | 0.32 | 82 | 1013.3 |
| 20260904222555 | 75 | 173 | 1.0 | 3.0 | 0.00 | 1.27 | 0.32 | 82 | 1013.2 |
| 20260904222055 | 75 | 173 | 1.0 | 6.0 | 0.00 | 1.27 | 0.32 | 82 | 1013.1 |
| 20260904221557 | 75 | 300 | 2.0 | 6.0 | 0.00 | 1.27 | 0.32 | 82 | 1013.0 |
| 20260904221055 | 75 | 147 | 0.0 | 3.0 | 0.00 | 1.27 | 0.32 | 83 | 1013.1 |
| 20260904220558 | 75 | 173 | 0.0 | 5.0 | 0.00 | 1.27 | 0.32 | 84 | 1013.0 |
| 20260904220053 | 75 | 23 | 1.0 | 5.0 | 0.00 | 1.46 | 0.32 | 84 | 1013.0 |
| 20260904215554 | 75 | 173 | 0.0 | 3.0 | 0.00 | 1.46 | 0.32 | 84 | 1012.9 |
| 20260904215052 | 75 | 84 | 0.0 | 3.0 | 0.00 | 1.46 | 0.32 | 84 | 1012.7 |
| 20260904214601 | 75 | 160 | 1.0 | 5.0 | 0.00 | 1.46 | 0.32 | 85 | 1012.6 |
| 20260904214050 | 75 | 173 | 1.0 | 5.0 | 0.00 | 1.46 | 0.32 | 84 | 1012.7 |
| 20260904213550 | 75 | 264 | 1.0 | 4.0 | 0.00 | 1.46 | 0.32 | 85 | 1012.5 |
| 20260904213049 | 75 | 250 | 1.0 | 5.0 | 0.00 | 1.46 | 0.32 | 85 | 1012.5 |
| 20260904212547 | 75 | 201 | 1.0 | 6.0 | 0.00 | 1.46 | 0.32 | 86 | 1012.3 |
| 20260904212047 | 74 | 204 | 2.0 | 6.0 | 0.00 | 1.46 | 0.32 | 86 | 1012.2 |
| 20260904211551 | 74 | 152 | 2.0 | 5.0 | 0.00 | 1.46 | 0.32 | 87 | 1012.3 |
| 20260904211046 | 74 | 210 | 2.0 | 5.0 | 0.00 | 1.46 | 0.32 | 87 | 1012.2 |
| 20260904210545 | 75 | 192 | 2.0 | 5.0 | 0.00 | 1.46 | 0.32 | 88 | 1012.1 |
| 20260904210045 | 75 | 247 | 2.0 | 5.0 | 0.00 | 1.46 | 0.32 | 89 | 1012.0 |
| 20260904205547 | 74 | 245 | 1.0 | 5.0 | 0.00 | 1.46 | 0.32 | 89 | 1011.8 |
| 20260904205042 | 74 | 208 | 1.0 | 5.0 | 0.00 | 1.46 | 0.32 | 89 | 1011.8 |
| 20260904204543 | 74 | 173 | 1.0 | 5.0 | 0.00 | 1.46 | 0.32 | 89 | 1011.6 |
| 20260904204041 | 74 | 140 | 2.0 | 7.0 | 0.00 | 1.46 | 0.32 | 90 | 1011.5 |
| 20260904203539 | 74 | 130 | 3.0 | 7.0 | 0.00 | 1.46 | 0.32 | 90 | 1011.7 |
| 20260904203038 | 74 | 215 | 2.0 | 9.0 | 0.00 | 1.46 | 0.32 | 91 | 1011.8 |
| 20260904202535 | 74 | 218 | 4.0 | 10.0 | 0.00 | 1.46 | 0.32 | 91 | 1011.8 |
| 20260904202034 | 73 | 218 | 4.0 | 10.0 | 0.00 | 1.46 | 0.32 | 91 | 1011.9 |
| 20260904201533 | 73 | 217 | 2.0 | 10.0 | 0.00 | 1.46 | 0.32 | 92 | 1012.0 |
| 20260904201033 | 73 | 248 | 4.0 | 10.0 | 0.00 | 1.46 | 0.32 | 91 | 1012.1 |
| 20260904200533 | 73 | 241 | 3.0 | 10.0 | 0.00 | 1.46 | 0.32 | 92 | 1012.3 |
| 20260904200028 | 73 | 186 | 4.0 | 13.0 | 0.00 | 1.53 | 0.32 | 93 | 1012.3 |
| 20260904195527 | 73 | 189 | 5.0 | 13.0 | 0.00 | 1.53 | 0.32 | 93 | 1012.5 |
| 20260904195025 | 73 | 213 | 7.0 | 11.0 | 0.00 | 1.53 | 0.32 | 93 | 1012.7 |
| 20260904194530 | 73 | 206 | 5.0 | 9.0 | 0.00 | 1.53 | 0.32 | 93 | 1012.8 |
| 20260904194023 | 73 | 229 | 2.0 | 7.0 | 0.00 | 1.53 | 0.32 | 93 | 1013.0 |
| 20260904193522 | 73 | 218 | 1.0 | 6.0 | 0.00 | 1.53 | 0.32 | 93 | 1013.1 |
| 20260904193022 | 73 | 222 | 2.0 | 7.0 | 0.00 | 1.53 | 0.32 | 93 | 1013.1 |
| 20260904192521 | 73 | 230 | 1.0 | 8.0 | 0.00 | 1.53 | 0.32 | 93 | 1013.0 |
| 20260904192024 | 72 | 184 | 2.0 | 9.0 | 0.00 | 1.53 | 0.32 | 93 | 1013.1 |
| 20260904191520 | 72 | 233 | 5.0 | 10.0 | 0.00 | 1.53 | 0.32 | 93 | 1013.5 |
| 20260904191023 | 72 | 247 | 4.0 | 10.0 | 0.00 | 1.53 | 0.32 | 93 | 1013.4 |
| 20260904190522 | 72 | 218 | 2.0 | 7.0 | 0.01 | 1.53 | 0.32 | 93 | 1013.6 |
| 20260904190018 | 72 | 223 | 3.0 | 8.0 | 0.01 | 1.53 | 0.32 | 93 | 1013.7 |
| 20260904185517 | 72 | 234 | 4.0 | 11.0 | 0.01 | 1.53 | 0.32 | 94 | 1013.7 |
| 20260904185019 | 72 | 279 | 4.0 | 13.0 | 0.02 | 1.53 | 0.32 | 93 | 1013.9 |
| 20260904184521 | 72 | 257 | 6.0 | 13.0 | 0.02 | 1.53 | 0.32 | 93 | 1013.6 |
| 20260904184015 | 72 | 202 | 7.0 | 12.0 | 0.02 | 1.53 | 0.32 | 94 | 1013.6 |
| 20260904183517 | 71 | 201 | 3.0 | 9.0 | 0.02 | 1.53 | 0.32 | 93 | 1013.4 |
| 20260904183013 | 71 | 186 | 2.0 | 12.0 | 0.02 | 1.53 | 0.32 | 93 | 1013.1 |
| 20260904182511 | 71 | 194 | 6.0 | 12.0 | 0.02 | 1.53 | 0.32 | 93 | 1013.1 |
| 20260904182011 | 71 | 255 | 3.0 | 10.0 | 0.02 | 1.53 | 0.32 | 93 | 1013.7 |
| 20260904181519 | 71 | 190 | 3.0 | 10.0 | 0.02 | 1.53 | 0.32 | 93 | 1014.0 |
| 20260904181012 | 71 | 218 | 3.0 | 9.0 | 0.02 | 1.53 | 0.32 | 93 | 1013.6 |
| 20260904180513 | 71 | 173 | 4.0 | 8.0 | 0.01 | 1.52 | 0.31 | 93 | 1014.3 |
| 20260904180027 | 71 | 231 | 3.0 | 7.0 | 0.01 | 1.52 | 0.31 | 93 | 1014.8 |
| 20260904175510 | 72 | 229 | 2.0 | 14.0 | 0.01 | 1.52 | 0.31 | 93 | 1015.2 |
| 20260904175009 | 72 | 309 | 3.0 | 14.0 | 0.00 | 1.51 | 0.30 | 93 | 1015.1 |
| 20260904174509 | 72 | 252 | 7.0 | 13.0 | 0.00 | 1.51 | 0.30 | 94 | 1015.4 |
| 20260904174009 | 72 | 257 | 5.0 | 8.0 | 0.00 | 1.51 | 0.30 | 94 | 1015.5 |
| 20260904173508 | 72 | 274 | 3.0 | 9.0 | 0.02 | 1.51 | 0.30 | 93 | 1015.5 |
| 20260904173010 | 72 | 264 | 4.0 | 9.0 | 0.07 | 1.51 | 0.30 | 93 | 1015.4 |
| 20260904172506 | 71 | 248 | 4.0 | 9.0 | 0.08 | 1.51 | 0.30 | 93 | 1015.2 |
| 20260904172005 | 71 | 356 | 3.0 | 8.0 | 0.08 | 1.51 | 0.30 | 93 | 1015.2 |
| 20260904171512 | 71 | 173 | 1.0 | 5.0 | 0.08 | 1.51 | 0.30 | 93 | 1015.3 |
| 20260904171002 | 71 | 103 | 2.0 | 7.0 | 0.08 | 1.51 | 0.30 | 93 | 1015.4 |
| 20260904170505 | 71 | 305 | 3.0 | 7.0 | 0.08 | 1.51 | 0.30 | 93 | 1015.5 |
| 20260904170002 | 71 | 331 | 2.0 | 6.0 | 0.08 | 1.51 | 0.30 | 93 | 1015.6 |
| 20260904165503 | 71 | 152 | 1.0 | 4.0 | 0.08 | 1.51 | 0.30 | 93 | 1015.7 |
| 20260904165101 | 71 | 10 | 2.0 | 4.0 | 0.08 | 1.51 | 0.30 | 93 | 1015.7 |
| 20260904164617 | 71 | 326 | 2.0 | 4.0 | 0.08 | 1.51 | 0.30 | 93 | 1015.5 |
| 20260904164058 | 71 | 319 | 1.0 | 9.0 | 0.08 | 1.51 | 0.30 | 93 | 1015.5 |
| 20260904163558 | 71 | 34 | 3.0 | 9.0 | 0.07 | 1.50 | 0.28 | 93 | 1015.6 |
| 20260904163058 | 71 | 326 | 1.0 | 6.0 | 0.02 | 1.45 | 0.24 | 93 | 1016.0 |
| 20260904162558 | 71 | 309 | 1.0 | 4.0 | 0.00 | 1.43 | 0.22 | 93 | 1015.7 |
| 20260904162058 | 71 | 156 | 1.0 | 7.0 | 0.00 | 1.43 | 0.22 | 93 | 1015.7 |
| 20260904161605 | 71 | 356 | 2.0 | 7.0 | 0.00 | 1.43 | 0.22 | 93 | 1015.7 |
| 20260904161057 | 71 | 58 | 2.0 | 6.0 | 0.00 | 1.43 | 0.22 | 93 | 1015.8 |
| 20260904160557 | 71 | 15 | 2.0 | 8.0 | 0.00 | 1.43 | 0.22 | 93 | 1015.9 |
| 20260904160057 | 71 | 331 | 3.0 | 8.0 | 0.00 | 1.43 | 0.22 | 93 | 1016.0 |
| 20260904155556 | 71 | 317 | 5.0 | 8.0 | 0.00 | 1.43 | 0.22 | 93 | 1016.1 |
| 20260904155053 | 71 | 335 | 3.0 | 6.0 | 0.00 | 1.43 | 0.22 | 93 | 1016.0 |
| 20260904154553 | 71 | 23 | 3.0 | 7.0 | 0.00 | 1.43 | 0.22 | 93 | 1016.0 |
| 20260904154050 | 71 | 324 | 3.0 | 6.0 | 0.00 | 1.43 | 0.22 | 93 | 1015.8 |
| 20260904153549 | 71 | 329 | 2.0 | 6.0 | 0.01 | 1.43 | 0.22 | 94 | 1015.6 |
| 20260904153056 | 71 | 338 | 4.0 | 6.0 | 0.02 | 1.43 | 0.22 | 94 | 1015.3 |
| 20260904152546 | 71 | 316 | 1.0 | 3.0 | 0.02 | 1.43 | 0.22 | 93 | 1015.1 |
| 20260904152046 | 71 | 331 | 1.0 | 4.0 | 0.03 | 1.43 | 0.22 | 93 | 1014.8 |
| 20260904151548 | 71 | 41 | 1.0 | 9.0 | 0.03 | 1.43 | 0.22 | 93 | 1014.6 |
| 20260904151044 | 71 | 205 | 1.0 | 10.0 | 0.04 | 1.43 | 0.22 | 93 | 1014.6 |
| 20260904150543 | 70 | 116 | 4.0 | 10.0 | 0.06 | 1.43 | 0.22 | 94 | 1014.0 |
| 20260904150042 | 70 | 142 | 4.0 | 7.0 | 0.07 | 1.43 | 0.22 | 94 | 1014.5 |
| 20260904145541 | 69 | 84 | 2.0 | 4.0 | 0.07 | 1.43 | 0.22 | 93 | 1014.9 |
| 20260904145040 | 69 | 69 | 2.0 | 4.0 | 0.08 | 1.43 | 0.22 | 93 | 1015.1 |
| 20260904144538 | 69 | 41 | 1.0 | 4.0 | 0.08 | 1.43 | 0.22 | 93 | 1015.2 |
| 20260904144038 | 69 | 41 | 0.0 | 4.0 | 0.08 | 1.43 | 0.22 | 93 | 1015.2 |
| 20260904143537 | 69 | 290 | 1.0 | 4.0 | 0.07 | 1.42 | 0.21 | 93 | 1015.2 |
| 20260904143037 | 69 | 137 | 0.0 | 4.0 | 0.07 | 1.41 | 0.20 | 93 | 1015.1 |
| 20260904142538 | 69 | 15 | 1.0 | 5.0 | 0.08 | 1.41 | 0.20 | 93 | 1015.2 |
| 20260904142039 | 69 | 84 | 2.0 | 6.0 | 0.10 | 1.40 | 0.19 | 93 | 1015.2 |
| 20260904141535 | 69 | 218 | 2.0 | 7.0 | 0.17 | 1.40 | 0.19 | 93 | 1015.3 |
| 20260904141034 | 69 | 257 | 4.0 | 7.0 | 0.18 | 1.39 | 0.18 | 93 | 1015.3 |
| 20260904140536 | 69 | 245 | 2.0 | 5.0 | 0.16 | 1.37 | 0.16 | 93 | 1015.2 |
| 20260904140037 | 69 | 236 | 2.0 | 6.0 | 0.15 | 1.36 | 0.15 | 93 | 1015.1 |
| 20260904135535 | 69 | 227 | 2.0 | 8.0 | 0.15 | 1.36 | 0.15 | 93 | 1015.2 |
| 20260904135034 | 69 | 236 | 4.0 | 9.0 | 0.14 | 1.35 | 0.14 | 93 | 1015.4 |
| 20260904134542 | 69 | 228 | 5.0 | 10.0 | 0.14 | 1.35 | 0.14 | 93 | 1015.4 |
| 20260904134033 | 69 | 229 | 6.0 | 10.0 | 0.14 | 1.35 | 0.14 | 93 | 1015.4 |
| 20260904133531 | 69 | 208 | 5.0 | 11.0 | 0.14 | 1.35 | 0.14 | 93 | 1015.2 |
| 20260904133044 | 69 | 198 | 6.0 | 11.0 | 0.13 | 1.34 | 0.13 | 93 | 1015.4 |
| 20260904132529 | 69 | 242 | 5.0 | 12.0 | 0.12 | 1.33 | 0.12 | 93 | 1015.4 |
| 20260904132029 | 69 | 243 | 4.0 | 12.0 | 0.09 | 1.30 | 0.09 | 93 | 1015.6 |
| 20260904131527 | 69 | 309 | 4.0 | 12.0 | 0.01 | 1.22 | 0.01 | 93 | 1015.4 |
| 20260904131026 | 69 | 233 | 4.0 | 10.0 | 0.00 | 1.21 | 0.00 | 93 | 1014.8 |
| 20260904130527 | 69 | 240 | 3.0 | 10.0 | 0.00 | 1.21 | 0.00 | 93 | 1014.6 |
| 20260904130026 | 69 | 236 | 3.0 | 12.0 | 0.00 | 1.21 | 0.00 | 93 | 1014.6 |
| 20260904125525 | 69 | 213 | 6.0 | 12.0 | 0.00 | 1.21 | 0.00 | 93 | 1014.7 |
| 20260904125053 | 69 | 223 | 5.0 | 10.0 | 0.00 | 1.21 | 0.00 | 93 | 1014.8 |
| 20260904124556 | 69 | 208 | 5.0 | 10.0 | 0.00 | 1.21 | 0.00 | 93 | 1014.8 |
| 20260904124051 | 69 | 238 | 5.0 | 10.0 | 0.00 | 1.21 | 0.00 | 93 | 1014.8 |
| 20260904123551 | 69 | 181 | 3.0 | 6.0 | 0.00 | 1.21 | 0.00 | 93 | 1014.5 |
| 20260904123051 | 68 | 210 | 2.0 | 5.0 | 0.00 | 1.21 | 0.00 | 93 | 1014.5 |
| 20260904122549 | 68 | 188 | 2.0 | 5.0 | 0.00 | 1.21 | 0.00 | 93 | 1014.5 |
| 20260904122049 | 68 | 130 | 1.0 | 6.0 | 0.00 | 1.21 | 0.00 | 93 | 1014.5 |
| 20260904121547 | 68 | 103 | 2.0 | 6.0 | 0.00 | 1.21 | 0.00 | 93 | 1014.3 |
| 20260904121048 | 68 | 142 | 2.0 | 5.0 | 0.00 | 1.21 | 0.00 | 93 | 1014.4 |
| 20260904120549 | 68 | 130 | 1.0 | 4.0 | 0.00 | 1.21 | 0.00 | 93 | 1014.5 |
| 20260904120057 | 67 | 130 | 1.0 | 4.0 | 0.00 | 1.21 | 0.00 | 93 | 1014.4 |
| 20260904115546 | 67 | 130 | 1.0 | 3.0 | 0.00 | 1.21 | 0.00 | 93 | 1014.3 |
| 20260904115045 | 67 | 112 | 1.0 | 4.0 | 0.00 | 1.21 | 0.00 | 93 | 1014.5 |
| 20260904114551 | 67 | 309 | 2.0 | 4.0 | 0.00 | 1.21 | 0.00 | 93 | 1014.4 |
| 20260904114044 | 66 | 112 | 2.0 | 4.0 | 0.00 | 1.21 | 0.00 | 93 | 1014.3 |
| 20260904113544 | 66 | 100 | 1.0 | 2.0 | 0.00 | 1.21 | 0.00 | 93 | 1014.5 |
| 20260904113043 | 66 | 173 | 0.0 | 3.0 | 0.00 | 1.21 | 0.00 | 93 | 1014.6 |
| 20260904112542 | 66 | 84 | 1.0 | 3.0 | 0.00 | 1.21 | 0.00 | 93 | 1014.6 |
| 20260904112040 | 66 | 84 | 0.0 | 3.0 | 0.00 | 1.21 | 0.00 | 93 | 1014.4 |
| 20260904111540 | 66 | 130 | 1.0 | 3.0 | 0.00 | 1.21 | 0.00 | 93 | 1014.3 |
| 20260904111040 | 66 | 100 | 1.0 | 3.0 | 0.00 | 1.21 | 0.00 | 93 | 1014.3 |
| 20260904110539 | 66 | 192 | 1.0 | 3.0 | 0.00 | 1.21 | 0.00 | 93 | 1014.5 |
| 20260904110038 | 66 | 356 | 1.0 | 4.0 | 0.00 | 1.34 | 0.00 | 93 | 1014.3 |
| 20260904105540 | 66 | 15 | 1.0 | 5.0 | 0.00 | 1.34 | 0.00 | 93 | 1014.0 |
| 20260904105037 | 66 | 218 | 2.0 | 6.0 | 0.00 | 1.34 | 0.00 | 93 | 1013.9 |
| 20260904104601 | 66 | 132 | 2.0 | 5.0 | 0.00 | 1.34 | 0.00 | 93 | 1013.8 |
| 20260904104035 | 66 | 154 | 2.0 | 5.0 | 0.00 | 1.34 | 0.00 | 93 | 1014.0 |
| 20260904103535 | 66 | 173 | 2.0 | 5.0 | 0.00 | 1.34 | 0.00 | 93 | 1013.9 |
| 20260904103037 | 66 | 139 | 2.0 | 5.0 | 0.00 | 1.34 | 0.00 | 93 | 1014.0 |
| 20260904102537 | 66 | 147 | 1.0 | 4.0 | 0.00 | 1.34 | 0.00 | 93 | 1014.2 |
| 20260904102037 | 66 | 84 | 2.0 | 4.0 | 0.00 | 1.34 | 0.00 | 93 | 1014.0 |
| 20260904101540 | 66 | 84 | 2.0 | 5.0 | 0.00 | 1.34 | 0.00 | 93 | 1014.0 |
| 20260904101035 | 66 | 74 | 2.0 | 5.0 | 0.00 | 1.34 | 0.00 | 92 | 1013.9 |
| 20260904100535 | 66 | 130 | 2.0 | 6.0 | 0.00 | 1.34 | 0.00 | 92 | 1013.7 |
| 20260904100037 | 66 | 84 | 3.0 | 6.0 | 0.00 | 1.34 | 0.00 | 92 | 1013.6 |
| 20260904095535 | 66 | 130 | 2.0 | 4.0 | 0.00 | 1.34 | 0.00 | 93 | 1013.7 |
| 20260904095034 | 65 | 84 | 0.0 | 3.0 | 0.00 | 1.34 | 0.00 | 93 | 1013.9 |
| 20260904094548 | 65 | 119 | 0.0 | 3.0 | 0.00 | 1.34 | 0.00 | 92 | 1014.1 |
| 20260904094032 | 65 | 183 | 2.0 | 3.0 | 0.00 | 1.34 | 0.00 | 92 | 1014.2 |
| 20260904093533 | 65 | 147 | 0.0 | 2.0 | 0.00 | 1.34 | 0.00 | 92 | 1014.4 |
| 20260904093032 | 65 | 23 | 0.0 | 2.0 | 0.00 | 1.34 | 0.00 | 92 | 1014.4 |
| 20260904092531 | 66 | 356 | 0.0 | 2.0 | 0.00 | 1.34 | 0.00 | 92 | 1014.2 |
| 20260904092034 | 66 | 264 | 0.0 | 3.0 | 0.00 | 1.34 | 0.00 | 92 | 1014.2 |
| 20260904091531 | 66 | 356 | 0.0 | 3.0 | 0.00 | 1.34 | 0.00 | 92 | 1014.1 |
| 20260904091032 | 66 | 51 | 1.0 | 3.0 | 0.00 | 1.34 | 0.00 | 92 | 1014.0 |
| 20260904090533 | 66 | 76 | 1.0 | 3.0 | 0.00 | 1.34 | 0.00 | 92 | 1013.9 |
| 20260904090030 | 66 | 30 | 1.0 | 3.0 | 0.00 | 1.34 | 0.00 | 92 | 1013.9 |
| 20260904085530 | 66 | 10 | 1.0 | 3.0 | 0.00 | 1.34 | 0.00 | 92 | 1013.9 |
| 20260904085030 | 66 | 112 | 0.0 | 2.0 | 0.00 | 1.34 | 0.00 | 92 | 1013.9 |
| 20260904084529 | 66 | 15 | 0.0 | 2.0 | 0.00 | 1.34 | 0.00 | 92 | 1013.9 |
| 20260904084028 | 66 | 41 | 0.0 | 3.0 | 0.00 | 1.34 | 0.00 | 92 | 1013.8 |
| 20260904083531 | 66 | 188 | 1.0 | 3.0 | 0.00 | 1.34 | 0.00 | 92 | 1013.6 |
| 20260904083027 | 66 | 188 | 1.0 | 2.0 | 0.00 | 1.34 | 0.00 | 92 | 1013.7 |
| 20260904082529 | 66 | 356 | 1.0 | 2.0 | 0.00 | 1.34 | 0.00 | 92 | 1013.8 |
| 20260904082026 | 66 | 356 | 0.0 | 3.0 | 0.00 | 1.34 | 0.00 | 92 | 1013.8 |
| 20260904081525 | 66 | 84 | 0.0 | 3.0 | 0.00 | 1.34 | 0.00 | 92 | 1013.7 |
| 20260904081026 | 66 | 102 | 1.0 | 3.0 | 0.00 | 1.34 | 0.00 | 92 | 1013.6 |
| 20260904080525 | 66 | 147 | 1.0 | 3.0 | 0.00 | 1.34 | 0.00 | 92 | 1013.6 |
| 20260904080026 | 66 | 41 | 1.0 | 3.0 | 0.00 | 1.34 | 0.00 | 92 | 1013.8 |
| 20260904075525 | 66 | 35 | 1.0 | 2.0 | 0.00 | 1.34 | 0.00 | 92 | 1013.9 |
| 20260904075025 | 66 | 41 | 0.0 | 3.0 | 0.00 | 1.34 | 0.00 | 92 | 1014.0 |
| 20260904074523 | 67 | 30 | 2.0 | 3.0 | 0.00 | 1.34 | 0.00 | 92 | 1014.0 |
| 20260904074027 | 66 | 30 | 1.0 | 3.0 | 0.00 | 1.34 | 0.00 | 92 | 1014.0 |
| 20260904073522 | 67 | 27 | 1.0 | 3.0 | 0.00 | 1.34 | 0.00 | 92 | 1014.0 |
| 20260904073029 | 67 | 10 | 1.0 | 2.0 | 0.00 | 1.34 | 0.00 | 92 | 1014.2 |
| 20260904072522 | 67 | 356 | 0.0 | 2.0 | 0.00 | 1.34 | 0.00 | 92 | 1014.1 |
| 20260904072021 | 67 | 356 | 1.0 | 3.0 | 0.00 | 1.34 | 0.00 | 92 | 1014.1 |
| 20260904071522 | 67 | 147 | 0.0 | 3.0 | 0.00 | 1.34 | 0.00 | 92 | 1014.0 |
| 20260904071021 | 67 | 23 | 0.0 | 3.0 | 0.00 | 1.34 | 0.00 | 92 | 1014.0 |
| 20260904070521 | 67 | 23 | 1.0 | 3.0 | 0.00 | 1.34 | 0.00 | 92 | 1014.0 |
| 20260904070037 | 67 | 196 | 0.0 | 3.0 | 0.00 | 1.34 | 0.00 | 92 | 1014.0 |
| 20260904065531 | 67 | 130 | 0.0 | 3.0 | 0.00 | 1.34 | 0.00 | 92 | 1013.9 |
| 20260904065020 | 67 | 140 | 1.0 | 3.0 | 0.00 | 1.34 | 0.00 | 92 | 1013.9 |
| 20260904064521 | 67 | 147 | 1.0 | 3.0 | 0.00 | 1.34 | 0.00 | 92 | 1014.0 |
| 20260904064025 | 67 | 130 | 0.0 | 3.0 | 0.00 | 1.34 | 0.00 | 92 | 1014.0 |
| 20260904063519 | 67 | 218 | 1.0 | 4.0 | 0.00 | 1.34 | 0.00 | 92 | 1014.0 |
| 20260904063019 | 67 | 173 | 0.0 | 5.0 | 0.00 | 1.34 | 0.00 | 92 | 1014.1 |
| 20260904062517 | 67 | 63 | 3.0 | 5.0 | 0.00 | 1.34 | 0.00 | 92 | 1014.1 |
| 20260904062017 | 67 | 67 | 1.0 | 3.0 | 0.00 | 1.34 | 0.00 | 92 | 1014.1 |
| 20260904061526 | 67 | 173 | 1.0 | 4.0 | 0.00 | 1.34 | 0.00 | 92 | 1014.1 |
| 20260904061017 | 67 | 67 | 1.0 | 4.0 | 0.00 | 1.34 | 0.00 | 92 | 1014.1 |
| 20260904060520 | 67 | 23 | 1.0 | 3.0 | 0.00 | 1.34 | 0.00 | 92 | 1014.0 |
| 20260904060017 | 67 | 218 | 0.0 | 4.0 | 0.00 | 1.34 | 0.00 | 92 | 1014.1 |
| 20260904055516 | 67 | 69 | 2.0 | 5.0 | 0.00 | 1.34 | 0.00 | 92 | 1014.0 |
| 20260904055015 | 67 | 281 | 1.0 | 5.0 | 0.00 | 1.34 | 0.00 | 92 | 1014.0 |
| 20260904054519 | 67 | 204 | 1.0 | 3.0 | 0.00 | 1.34 | 0.00 | 92 | 1014.0 |
| 20260904054016 | 67 | 41 | 1.0 | 3.0 | 0.00 | 1.34 | 0.00 | 92 | 1014.0 |
| 20260904053518 | 67 | 211 | 2.0 | 4.0 | 0.00 | 1.34 | 0.00 | 92 | 1013.9 |
| 20260904053020 | 67 | 48 | 2.0 | 6.0 | 0.00 | 1.34 | 0.00 | 92 | 1014.1 |
| 20260904052514 | 67 | 356 | 1.0 | 6.0 | 0.00 | 1.34 | 0.00 | 92 | 1013.9 |
| 20260904052013 | 67 | 206 | 1.0 | 4.0 | 0.00 | 1.34 | 0.00 | 92 | 1014.0 |
| 20260904051514 | 67 | 41 | 1.0 | 3.0 | 0.00 | 1.34 | 0.00 | 92 | 1013.9 |
| 20260904051015 | 68 | 84 | 0.0 | 4.0 | 0.00 | 1.34 | 0.00 | 92 | 1013.9 |
| 20260904050512 | 68 | 356 | 1.0 | 4.0 | 0.00 | 1.34 | 0.00 | 92 | 1013.9 |
| 20260904050025 | 68 | 229 | 2.0 | 4.0 | 0.00 | 1.34 | 0.00 | 92 | 1013.9 |
| 20260904045512 | 68 | 6 | 2.0 | 4.0 | 0.00 | 1.34 | 0.00 | 92 | 1014.1 |
| 20260904045013 | 68 | 218 | 1.0 | 6.0 | 0.00 | 1.34 | 0.00 | 92 | 1013.9 |
| 20260904044518 | 68 | 330 | 3.0 | 7.0 | 0.00 | 1.34 | 0.00 | 92 | 1014.0 |
| 20260904044012 | 68 | 16 | 4.0 | 7.0 | 0.00 | 1.34 | 0.00 | 91 | 1014.0 |
| 20260904043511 | 68 | 231 | 2.0 | 7.0 | 0.00 | 1.34 | 0.00 | 91 | 1013.9 |
| 20260904043010 | 68 | 23 | 4.0 | 7.0 | 0.00 | 1.34 | 0.00 | 91 | 1014.0 |
| 20260904042510 | 68 | 23 | 0.0 | 5.0 | 0.00 | 1.34 | 0.00 | 91 | 1013.9 |
| 20260904042011 | 68 | 35 | 4.0 | 7.0 | 0.00 | 1.34 | 0.00 | 91 | 1013.9 |
| 20260904041510 | 68 | 208 | 3.0 | 7.0 | 0.00 | 1.34 | 0.00 | 91 | 1013.6 |
| 20260904041008 | 68 | 234 | 1.0 | 7.0 | 0.00 | 1.34 | 0.00 | 92 | 1013.9 |
| 20260904040508 | 68 | 25 | 5.0 | 8.0 | 0.00 | 1.34 | 0.00 | 92 | 1013.7 |
| 20260904040007 | 68 | 234 | 4.0 | 9.0 | 0.00 | 1.34 | 1.34 | 91 | 1013.4 |
| 20260904035507 | 68 | 218 | 2.0 | 9.0 | 0.00 | 1.34 | 1.34 | 92 | 1013.7 |
| 20260904035008 | 68 | 6 | 2.0 | 11.0 | 0.00 | 1.34 | 1.34 | 91 | 1013.7 |
| 20260904034506 | 68 | 23 | 7.0 | 11.0 | 0.00 | 1.34 | 1.34 | 92 | 1013.6 |
| 20260904034005 | 68 | 356 | 1.0 | 8.0 | 0.00 | 1.34 | 1.34 | 91 | 1013.1 |
| 20260904033505 | 68 | 156 | 3.0 | 8.0 | 0.00 | 1.34 | 1.34 | 91 | 1013.2 |
| 20260904033004 | 68 | 156 | 4.0 | 14.0 | 0.00 | 1.34 | 1.34 | 91 | 1013.1 |
| 20260904032504 | 68 | 154 | 4.0 | 14.0 | 0.00 | 1.34 | 1.34 | 91 | 1013.2 |
| 20260904032005 | 68 | 193 | 5.0 | 11.0 | 0.00 | 1.34 | 1.34 | 91 | 1012.9 |
| 20260904031504 | 68 | 138 | 6.0 | 11.0 | 0.00 | 1.34 | 1.34 | 91 | 1012.9 |
| 20260904031006 | 68 | 181 | 5.0 | 11.0 | 0.00 | 1.34 | 1.34 | 91 | 1012.9 |
| 20260904030507 | 68 | 132 | 3.0 | 11.0 | 0.00 | 1.34 | 1.34 | 91 | 1012.9 |
| 20260904030004 | 68 | 147 | 3.0 | 13.0 | 0.00 | 1.34 | 1.34 | 91 | 1012.9 |
| 20260904025604 | 68 | 210 | 5.0 | 13.0 | 0.00 | 1.34 | 1.34 | 91 | 1012.9 |
| 20260904025003 | 68 | 156 | 3.0 | 13.0 | 0.00 | 1.34 | 1.34 | 91 | 1012.9 |
| 20260904024503 | 68 | 192 | 6.0 | 14.0 | 0.00 | 1.34 | 1.34 | 91 | 1013.0 |
| 20260904024002 | 68 | 176 | 5.0 | 15.0 | 0.00 | 1.34 | 1.34 | 91 | 1012.9 |
| 20260904023505 | 68 | 189 | 6.0 | 15.0 | 0.00 | 1.34 | 1.34 | 91 | 1012.9 |
| 20260904023002 | 68 | 192 | 5.0 | 16.0 | 0.00 | 1.34 | 1.34 | 91 | 1013.1 |
| 20260904022503 | 68 | 163 | 8.0 | 16.0 | 0.00 | 1.34 | 1.34 | 91 | 1013.0 |
| 20260904022002 | 68 | 203 | 6.0 | 14.0 | 0.00 | 1.34 | 1.34 | 91 | 1013.0 |
| 20260904021501 | 68 | 139 | 6.0 | 17.0 | 0.00 | 1.34 | 1.34 | 91 | 1012.9 |
| 20260904021002 | 68 | 180 | 6.0 | 17.0 | 0.00 | 1.34 | 1.34 | 91 | 1012.9 |
| 20260904020601 | 68 | 186 | 6.0 | 17.0 | 0.00 | 1.34 | 1.34 | 91 | 1012.8 |
| 20260904020059 | 68 | 91 | 6.0 | 13.0 | 0.00 | 1.34 | 1.34 | 91 | 1012.5 |
| 20260904015559 | 68 | 150 | 5.0 | 13.0 | 0.00 | 1.34 | 1.34 | 91 | 1012.5 |
| 20260904015102 | 68 | 135 | 4.0 | 12.0 | 0.00 | 1.34 | 1.34 | 91 | 1012.3 |
| 20260904014610 | 68 | 158 | 7.0 | 15.0 | 0.00 | 1.34 | 1.34 | 91 | 1012.4 |
| 20260904014058 | 68 | 145 | 7.0 | 15.0 | 0.00 | 1.34 | 1.34 | 91 | 1012.4 |
| 20260904013600 | 68 | 125 | 6.0 | 17.0 | 0.00 | 1.34 | 1.34 | 91 | 1012.5 |
| 20260904013056 | 68 | 168 | 9.0 | 17.0 | 0.00 | 1.34 | 1.34 | 91 | 1012.4 |
| 20260904012600 | 68 | 126 | 4.0 | 14.0 | 0.00 | 1.34 | 1.34 | 91 | 1012.6 |
| 20260904012056 | 68 | 264 | 4.0 | 14.0 | 0.00 | 1.34 | 1.34 | 91 | 1012.7 |
| 20260904011555 | 68 | 130 | 4.0 | 15.0 | 0.00 | 1.34 | 1.34 | 91 | 1012.6 |
| 20260904011056 | 68 | 133 | 4.0 | 15.0 | 0.00 | 1.34 | 1.34 | 91 | 1012.7 |
| 20260904010554 | 68 | 122 | 6.0 | 15.0 | 0.00 | 1.34 | 1.34 | 91 | 1012.8 |
| 20260904010058 | 68 | 133 | 5.0 | 15.0 | 0.00 | 1.34 | 1.34 | 91 | 1012.8 |
| 20260904005552 | 68 | 165 | 5.0 | 13.0 | 0.00 | 1.34 | 1.34 | 91 | 1012.9 |
| 20260904005051 | 68 | 151 | 5.0 | 14.0 | 0.01 | 1.34 | 1.34 | 90 | 1013.0 |
| 20260904004552 | 68 | 110 | 7.0 | 14.0 | 0.01 | 1.34 | 1.34 | 90 | 1012.9 |
| 20260904004052 | 68 | 149 | 5.0 | 13.0 | 0.02 | 1.34 | 1.34 | 90 | 1012.9 |
| 20260904003549 | 68 | 131 | 6.0 | 13.0 | 0.02 | 1.34 | 1.34 | 90 | 1012.8 |
| 20260904003050 | 68 | 154 | 5.0 | 15.0 | 0.02 | 1.34 | 1.34 | 90 | 1012.7 |
| 20260904002548 | 68 | 136 | 6.0 | 15.0 | 0.03 | 1.34 | 1.34 | 90 | 1013.0 |
| 20260904002050 | 68 | 127 | 4.0 | 11.0 | 0.04 | 1.34 | 1.34 | 90 | 1013.0 |
| 20260904001554 | 68 | 115 | 4.0 | 10.0 | 0.06 | 1.34 | 1.34 | 90 | 1012.8 |
| 20260904001048 | 68 | 125 | 4.0 | 9.0 | 0.07 | 1.34 | 1.34 | 90 | 1013.4 |
| 20260904000548 | 68 | 103 | 2.0 | 9.0 | 0.07 | 1.34 | 1.34 | 90 | 1013.3 |
| 20260904000110 | 68 | 112 | 3.0 | 9.0 | 0.08 | 1.34 | 1.34 | 90 | 1013.1 |
| 20260903235548 | 68 | 84 | 4.0 | 11.0 | 0.09 | 1.33 | 1.33 | 89 | 1013.4 |
| 20260903235046 | 68 | 71 | 5.0 | 11.0 | 0.11 | 1.33 | 1.33 | 89 | 1013.6 |
| 20260903234546 | 68 | 112 | 5.0 | 11.0 | 0.12 | 1.33 | 1.33 | 89 | 1013.9 |
| 20260903234046 | 68 | 69 | 6.0 | 10.0 | 0.19 | 1.32 | 1.32 | 89 | 1014.0 |
| 20260903233546 | 68 | 74 | 4.0 | 7.0 | 0.27 | 1.32 | 1.32 | 89 | 1014.5 |
| 20260903233102 | 68 | 54 | 2.0 | 6.0 | 0.38 | 1.32 | 1.32 | 89 | 1014.7 |
| 20260903232545 | 68 | 105 | 3.0 | 7.0 | 0.51 | 1.31 | 1.31 | 88 | 1014.9 |
| 20260903232045 | 69 | 58 | 2.0 | 8.0 | 0.66 | 1.30 | 1.30 | 88 | 1015.1 |
| 20260903231547 | 69 | 119 | 2.0 | 10.0 | 0.76 | 1.28 | 1.28 | 88 | 1015.3 |
| 20260903231044 | 69 | 356 | 4.0 | 11.0 | 0.82 | 1.27 | 1.27 | 88 | 1015.6 |
| 20260903230543 | 69 | 356 | 6.0 | 16.0 | 0.85 | 1.26 | 1.26 | 87 | 1015.5 |
| 20260903230104 | 69 | 20 | 7.0 | 16.0 | 0.86 | 1.25 | 1.25 | 87 | 1015.5 |
| 20260903225542 | 69 | 346 | 7.0 | 14.0 | 0.98 | 1.24 | 1.24 | 87 | 1015.7 |
| 20260903225041 | 69 | 342 | 6.0 | 17.0 | 1.02 | 1.22 | 1.22 | 86 | 1015.4 |
| 20260903224546 | 69 | 29 | 8.0 | 17.0 | 1.00 | 1.20 | 1.20 | 85 | 1015.2 |
| 20260903224040 | 70 | 323 | 7.0 | 16.0 | 0.92 | 1.12 | 1.12 | 85 | 1015.5 |